Temp
-9 -8 -8 -8 -8 -8 -8 -8 -9 -9 -10 -10 -10 -10 -11 -11 -11 -10 -10 -9 -10 -10 -9 -9 -9 -9 -9 -9 -9 -9 -9 -8 -8 -8 -8 -8 -7 -7 -7 -7 -7 -7 -7
-9 -8 -8 -8 -8 -8 -8 -8 -9 -9 -10 -10 -11 -10 -11 -11 -11 -10 -10 -10 -10 -9 -9 -9 -9 -9 -9 -9 -9 -9 -9 -9 -9 -8 -8 -8 -8 -8 -7 -8 -7 -7 -7
-9 -9 -9 -8 -8 -8 -8 -8 -9 -9 -9 -11 -11 -10 -11 -12 -11 -11 -10 -10 -10 -9 -9 -9 -10 -9 -9 -9 -10 -9 -9 -9 -9 -9 -8 -8 -8 -8 -8 -8 -8 -8 -8
-9 -9 -9 -9 -9 -9 -8 -8 -9 -9 -9 -10 -11 -11 -10 -11 -12 -11 -11 -10 -10 -10 -10 -10 -10 -10 -10 -10 -10 -10 -10 -9 -9 -9 -9 -9 -9 -8 -8 -8 -8 -8 -8
-9 -9 -9 -9 -10 -9 -9 -9 -9 -9 -9 -10 -10 -10 -11 -11 -12 -11 -11 -11 -10 -10 -10 -10 -10 -10 -10 -10 -10 -10 -10 -10 -9 -9 -9 -9 -9 -9 -9 -8 -8 -8 -8
-9 -9 -10 -9 -9 -9 -10 -10 -10 -9 -9 -10 -10 -10 -10 -11 -11 -11 -11 -11 -11 -10 -10 -10 -10 -10 -10 -10 -10 -10 -10 -10 -9 -9 -9 -9 -9 -9 -9 -9 -9 -8 -8
-9 -9 -9 -10 -10 -10 -10 -10 -10 -10 -9 -9 -10 -9 -9 -10 -10 -11 -11 -11 -11 -10 -10 -10 -10 -10 -10 -10 -10 -10 -10 -10 -10 -9 -10 -9 -9 -9 -9 -9 -9 -9 -9
-10 -10 -10 -10 -10 -10 -10 -10 -10 -10 -10 -10 -10 -10 -10 -10 -10 -10 -11 -11 -11 -11 -10 -10 -10 -10 -10 -10 -10 -11 -11 -10 -10 -10 -10 -9 -9 -9 -9 -9 -9 -9 -9
-11 -10 -10 -10 -10 -10 -10 -10 -10 -10 -10 -10 -10 -10 -10 -10 -10 -10 -10 -10 -10 -10 -10 -10 -10 -10 -10 -10 -10 -11 -11 -11 -10 -10 -10 -10 -10 -10 -10 -10 -10 -9 -9
-10 -11 -10 -10 -10 -10 -10 -10 -10 -10 -10 -10 -10 -10 -10 -10 -10 -10 -10 -10 -10 -10 -10 -10 -10 -10 -10 -10 -10 -10 -11 -11 -11 -10 -10 -10 -10 -10 -10 -10 -10 -10 -10
-10 -10 -10 -10 -10 -10 -10 -10 -10 -10 -10 -10 -10 -10 -10 -10 -10 -10 -10 -10 -10 -10 -10 -10 -10 -10 -10 -10 -10 -10 -10 -11 -11 -11 -10 -10 -10 -10 -10 -10 -10 -10 -10
-10 -10 -11 -10 -11 -11 -11 -10 -10 -10 -10 -10 -10 -11 -10 -10 -10 -10 -10 -10 -10 -10 -9 -10 -10 -10 -10 -10 -10 -10 -11 -11 -11 -11 -11 -10 -11 -10 -10 -10 -10 -10 -10
-11 -11 -11 -11 -11 -11 -11 -11 -11 -11 -11 -10 -10 -10 -11 -11 -10 -10 -11 -10 -10 -9 -9 -10 -10 -10 -10 -10 -10 -10 -11 -10 -11 -11 -11 -11 -11 -11 -11 -11 -11 -11 -11
-11 -11 -11 -12 -12 -12 -11 -11 -11 -11 -11 -11 -11 -11 -11 -11 -10 -10 -11 -12 -11 -10 -10 -10 -10 -10 -10 -10 -11 -11 -11 -10 -11 -11 -11 -11 -11 -11 -11 -11 -11 -11 -11
-11 -11 -11 -12 -12 -12 -12 -11 -11 -11 -11 -11 -11 -11 -11 -11 -11 -11 -11 -11 -12 -10 -11 -11 -10 -10 -10 -11 -11 -11 -11 -11 -11 -11 -11 -11 -11 -11 -11 -11 -11 -11 -11
-11 -11 -12 -12 -12 -12 -12 -12 -12 -11 -11 -11 -11 -11 -11 -11 -11 -11 -11 -11 -11 -11 -11 -11 -11 -11 -11 -11 -11 -11 -12 -12 -11 -11 -11 -11 -11 -11 -11 -11 -11 -11 -11
-12 -12 -12 -12 -12 -12 -13 -13 -12 -12 -12 -11 -11 -11 -11 -13 -12 -11 -11 -11 -11 -12 -12 -11 -12 -12 -12 -12 -12 -12 -12 -11 -12 -12 -11 -11 -11 -11 -11 -11 -11 -12 -12
-14 -14 -13 -13 -12 -13 -13 -13 -13 -13 -12 -12 -12 -12 -12 -12 -13 -13 -12 -12 -12 -12 -12 -11 -13 -12 -12 -13 -12 -12 -12 -12 -12 -12 -12 -12 -12 -12 -12 -11 -12 -12 -12
-15 -15 -14 -14 -14 -13 -13 -13 -14 -13 -13 -12 -12 -12 -12 -12 -13 -13 -12 -13 -12 -12 -12 -12 -12 -14 -13 -14 -13 -12 -12 -13 -12 -12 -12 -12 -12 -13 -12 -12 -12 -12 -12
-15 -15 -15 -15 -14 -14 -14 -14 -13 -14 -14 -13 -13 -13 -12 -13 -13 -13 -13 -13 -13 -13 -12 -12 -13 -13 -14 -14 -13 -12 -12 -13 -14 -13 -13 -12 -13 -12 -12 -12 -12 -12 -13
-15 -15 -15 -15 -15 -15 -15 -14 -14 -14 -14 -14 -13 -13 -14 -14 -13 -13 -13 -13 -13 -13 -13 -13 -13 -13 -15 -14 -14 -14 -14 -14 -14 -13 -13 -12 -13 -13 -13 -12 -13 -13 -13
-15 -15 -15 -15 -15 -15 -15 -15 -15 -15 -14 -14 -14 -13 -13 -14 -13 -13 -13 -13 -13 -13 -14 -14 -13 -13 -13 -13 -13 -13 -13 -14 -14 -13 -13 -13 -13 -13 -13 -13 -13 -13 -13
-16 -16 -16 -16 -16 -16 -16 -16 -16 -15 -15 -15 -15 -14 -14 -13 -13 -14 -13 -13 -13 -14 -13 -14 -14 -14 -14 -14 -14 -14 -14 -13 -13 -13 -13 -13 -13 -13 -13 -13 -13 -13 -13
-18 -17 -17 -17 -17 -16 -16 -16 -16 -16 -16 -15 -15 -15 -14 -14 -14 -14 -14 -13 -14 -14 -14 -14 -15 -14 -14 -14 -14 -14 -14 -14 -14 -14 -14 -14 -13 -13 -13 -13 -14 -14 -14
-19 -18 -17 -17 -18 -17 -17 -16 -16 -16 -16 -16 -16 -15 -15 -16 -14 -15 -14 -14 -14 -15 -14 -14 -15 -14 -15 -15 -14 -14 -14 -14 -14 -14 -13 -14 -14 -14 -14 -14 -14 -14 -14
-19 -19 -19 -18 -18 -18 -18 -17 -17 -17 -16 -17 -17 -16 -16 -16 -15 -15 -14 -15 -15 -14 -14 -14 -14 -14 -15 -15 -15 -15 -15 -14 -14 -14 -14 -13 -14 -14 -14 -14 -14 -14 -14
Height
5799 5799 5800 5799 5800 5800 5799 5798 5799 5799 5800 5800 5800 5802 5804 5806 5809 5810 5814 5817 5819 5820 5821 5824 5825 5827 5828 5830 5833 5835 5835 5836 5838 5839 5841 5842 5844 5846 5847 5849 5851 5853 5855
5793 5796 5797 5796 5796 5798 5798 5796 5796 5798 5797 5798 5798 5800 5801 5802 5805 5808 5811 5813 5817 5819 5818 5821 5824 5826 5827 5829 5831 5835 5836 5837 5837 5839 5840 5842 5843 5845 5847 5849 5851 5853 5855
5790 5791 5793 5793 5794 5794 5795 5794 5793 5794 5795 5795 5795 5797 5799 5800 5802 5804 5807 5812 5814 5816 5816 5819 5821 5824 5827 5828 5831 5833 5836 5837 5839 5839 5840 5842 5843 5845 5847 5849 5851 5853 5856
5785 5786 5787 5789 5790 5791 5791 5790 5790 5790 5792 5793 5793 5794 5796 5799 5798 5801 5804 5808 5811 5813 5815 5817 5819 5822 5825 5827 5830 5832 5834 5837 5838 5839 5840 5842 5843 5845 5847 5849 5851 5853 5855
5781 5782 5781 5782 5784 5786 5787 5788 5788 5788 5789 5790 5791 5792 5792 5795 5797 5797 5800 5804 5808 5810 5812 5815 5817 5819 5822 5825 5828 5831 5833 5835 5837 5838 5840 5841 5843 5844 5846 5848 5850 5852 5854
5775 5776 5777 5777 5779 5780 5782 5783 5784 5784 5786 5785 5787 5790 5791 5792 5793 5794 5797 5800 5803 5806 5808 5811 5814 5815 5818 5822 5825 5828 5832 5834 5836 5837 5839 5840 5842 5843 5844 5847 5849 5851 5853
5768 5770 5772 5773 5773 5775 5777 5779 5780 5781 5781 5781 5783 5785 5787 5789 5789 5792 5793 5795 5799 5802 5804 5807 5808 5811 5814 5818 5821 5825 5828 5831 5833 5836 5837 5837 5840 5841 5843 5846 5847 5849 5852
5766 5764 5766 5767 5769 5770 5772 5773 5775 5777 5778 5779 5779 5780 5783 5785 5787 5790 5792 5792 5795 5797 5799 5802 5804 5806 5810 5813 5816 5820 5824 5826 5830 5833 5834 5836 5838 5840 5842 5844 5847 5848 5851
5759 5761 5761 5761 5763 5766 5767 5767 5769 5772 5774 5774 5776 5778 5778 5781 5783 5785 5787 5788 5789 5791 5794 5797 5799 5803 5807 5808 5810 5814 5818 5821 5826 5830 5832 5834 5836 5838 5841 5842 5845 5847 5849
5752 5753 5755 5756 5757 5759 5761 5761 5764 5765 5768 5771 5773 5773 5775 5775 5779 5781 5781 5782 5784 5786 5788 5790 5794 5798 5799 5801 5805 5808 5810 5817 5822 5826 5829 5831 5834 5836 5839 5841 5843 5845 5847
5742 5744 5746 5748 5750 5752 5754 5755 5757 5759 5762 5765 5766 5768 5770 5772 5774 5775 5775 5776 5777 5779 5781 5784 5788 5791 5795 5798 5801 5803 5805 5811 5818 5822 5826 5828 5831 5834 5836 5839 5841 5843 5845
5727 5728 5732 5738 5742 5744 5747 5749 5751 5754 5757 5758 5760 5763 5765 5766 5769 5768 5768 5771 5771 5773 5772 5776 5782 5785 5790 5792 5796 5799 5803 5808 5813 5817 5822 5826 5827 5830 5833 5836 5838 5841 5843
5723 5725 5727 5730 5733 5737 5740 5743 5745 5748 5750 5752 5755 5758 5759 5762 5763 5762 5763 5764 5759 5757 5756 5767 5776 5780 5784 5789 5792 5796 5799 5803 5807 5813 5818 5822 5822 5826 5829 5832 5835 5838 5840
5712 5716 5719 5722 5725 5729 5733 5736 5739 5741 5744 5746 5748 5751 5753 5756 5758 5756 5758 5760 5763 5759 5759 5765 5767 5774 5779 5784 5787 5792 5794 5798 5804 5809 5814 5817 5820 5822 5825 5828 5831 5834 5837
5699 5705 5709 5712 5717 5721 5724 5728 5730 5733 5736 5739 5741 5743 5745 5749 5751 5751 5753 5756 5759 5756 5758 5759 5763 5769 5773 5778 5782 5785 5789 5793 5797 5804 5810 5812 5816 5819 5822 5824 5827 5830 5832
5686 5690 5697 5701 5705 5709 5713 5717 5720 5723 5727 5729 5733 5736 5736 5739 5745 5745 5748 5751 5752 5754 5754 5755 5756 5761 5767 5771 5776 5780 5784 5789 5790 5798 5805 5809 5810 5814 5817 5818 5822 5825 5827
5674 5677 5683 5689 5692 5696 5701 5705 5709 5713 5718 5721 5724 5728 5729 5731 5733 5739 5740 5745 5749 5749 5752 5749 5751 5755 5763 5769 5774 5777 5780 5783 5787 5792 5798 5802 5806 5808 5811 5814 5816 5819 5821
5659 5665 5667 5675 5679 5683 5686 5693 5698 5703 5707 5713 5715 5719 5721 5724 5726 5730 5733 5737 5741 5746 5750 5749 5748 5751 5756 5762 5770 5771 5778 5782 5783 5786 5790 5797 5799 5801 5804 5808 5811 5813 5816
5643 5649 5653 5658 5665 5670 5674 5681 5685 5692 5697 5702 5707 5710 5713 5716 5720 5722 5725 5726 5732 5737 5741 5746 5748 5750 5751 5757 5763 5765 5769 5775 5779 5783 5785 5788 5792 5795 5799 5802 5804 5808 5811
5627 5633 5638 5644 5649 5655 5661 5667 5674 5680 5686 5691 5696 5700 5703 5706 5711 5715 5718 5720 5723 5729 5734 5738 5744 5746 5749 5752 5754 5760 5763 5766 5773 5776 5780 5782 5788 5789 5793 5795 5797 5801 5805
5610 5617 5622 5628 5633 5639 5645 5652 5658 5666 5674 5680 5683 5686 5691 5696 5701 5705 5710 5714 5715 5718 5723 5728 5732 5736 5739 5744 5747 5753 5756 5761 5764 5769 5773 5777 5781 5784 5786 5789 5793 5795 5797
5593 5599 5606 5612 5617 5623 5629 5636 5642 5650 5660 5666 5673 5674 5671 5684 5689 5698 5699 5706 5708 5712 5716 5720 5724 5729 5733 5736 5739 5743 5748 5754 5757 5762 5765 5769 5773 5776 5778 5781 5785 5787 5790
5576 5582 5589 5595 5601 5606 5613 5621 5627 5634 5642 5651 5659 5664 5668 5677 5675 5678 5689 5694 5699 5703 5707 5711 5715 5721 5724 5729 5733 5736 5739 5744 5751 5755 5759 5761 5764 5767 5771 5774 5778 5779 5782
5561 5568 5574 5580 5585 5591 5598 5604 5612 5619 5626 5633 5642 5650 5656 5663 5667 5675 5681 5681 5680 5693 5694 5700 5704 5709 5713 5718 5723 5729 5732 5737 5741 5745 5750 5754 5756 5758 5761 5765 5769 5771 5773
5548 5553 5559 5565 5571 5577 5584 5590 5597 5603 5610 5618 5626 5633 5641 5648 5653 5661 5667 5674 5674 5680 5685 5685 5691 5697 5703 5708 5714 5719 5723 5728 5733 5736 5739 5742 5744 5749 5750 5754 5756 5760 5763
5532 5537 5544 5550 5555 5560 5567 5575 5582 5588 5594 5601 5609 5617 5625 5633 5642 5647 5654 5658 5662 5669 5672 5677 5681 5686 5688 5694 5701 5706 5712 5717 5720 5724 5728 5731 5735 5737 5740 5742 5747 5751 5755
Wind_Speed
18 23 19 24 21 20 20 17 15 13 14 16 20 24 27 26 23 23 16 14 12 13 14 13 11 11 13 17 17 19 19 21 19 19 19 17 16 17 19 19 19 17 15
19 21 21 22 21 21 21 19 17 15 13 15 19 22 26 28 27 26 23 17 15 15 18 16 14 14 15 15 16 17 18 19 20 20 20 19 17 17 17 18 18 17 15
18 19 23 21 22 24 22 21 19 18 16 14 15 21 25 28 28 28 26 22 17 18 15 16 18 18 17 17 17 18 17 17 18 19 19 19 16 16 17 16 17 18 17
21 21 20 21 22 23 23 23 21 19 20 17 16 18 23 28 29 28 27 27 22 20 21 18 17 20 20 20 19 19 18 18 18 17 18 17 17 16 16 17 16 17 17
22 20 20 20 22 22 22 22 21 21 20 20 18 18 20 27 30 30 28 26 28 25 23 22 21 22 23 23 22 21 20 19 19 18 18 17 17 16 16 16 17 16 17
22 21 21 20 22 22 22 21 21 21 21 20 19 19 19 23 27 31 29 27 28 29 26 25 23 24 26 26 25 23 22 21 20 19 18 17 17 17 17 16 16 16 16
23 21 22 23 23 22 22 22 22 23 23 22 21 21 20 20 23 28 30 30 29 30 29 28 27 27 27 28 27 26 25 25 24 21 20 20 18 17 17 16 16 17 16
27 23 23 24 25 24 23 23 24 24 25 24 22 21 22 22 22 25 29 29 30 30 31 30 31 32 29 31 31 29 28 28 26 23 23 21 20 18 18 17 16 16 16
28 28 26 26 27 27 27 26 25 25 25 26 23 23 25 25 23 22 28 30 34 32 33 33 33 32 31 34 34 33 34 32 27 25 24 22 21 20 19 18 17 17 17
32 32 31 30 29 29 29 29 28 28 26 25 26 23 25 27 27 26 26 27 31 31 36 35 34 32 35 34 41 40 39 35 31 29 27 25 21 21 21 19 19 19 18
36 36 37 36 35 33 32 32 31 29 27 28 27 24 24 26 28 31 29 28 32 34 36 35 33 33 31 27 35 44 43 36 34 32 28 26 25 25 23 22 22 20 19
44 44 42 40 39 36 36 35 35 33 31 31 28 27 26 24 27 31 34 32 34 37 47 40 34 31 28 27 32 33 34 36 39 32 29 27 25 24 24 24 23 22 21
46 45 44 42 42 40 39 38 37 37 35 34 32 30 29 26 26 29 29 35 24 33 39 46 36 27 26 33 31 33 38 41 38 31 30 27 29 26 27 27 24 23 22
49 48 47 45 44 43 41 39 40 40 39 37 36 34 34 30 28 29 28 26 29 33 31 40 27 28 26 29 42 40 40 44 34 33 32 30 29 28 28 27 25 24 23
52 50 49 47 46 43 43 42 42 42 42 40 38 37 38 36 31 31 31 28 27 36 34 33 33 32 33 36 42 44 33 41 34 37 34 35 26 28 30 29 28 26 24
55 54 52 51 49 46 47 45 45 46 46 45 41 39 40 39 34 35 34 30 27 42 35 40 36 36 34 34 46 40 37 38 36 37 36 36 30 32 33 30 26 26 27
57 56 54 53 51 50 50 48 48 48 48 48 47 42 42 37 35 37 37 34 29 30 28 49 29 23 31 38 41 41 40 40 38 44 45 39 38 37 33 29 27 29 31
57 57 57 56 55 54 55 52 50 50 50 50 49 45 45 43 40 37 40 38 33 32 37 56 41 26 29 15 30 39 36 36 41 42 26 42 40 36 30 29 32 34 35
57 57 61 60 60 58 56 56 54 52 51 52 51 50 47 46 44 41 39 41 39 36 34 38 35 35 38 24 24 35 32 30 33 29 24 30 55 45 38 31 32 33 34
61 59 61 63 63 62 59 58 57 54 53 52 51 53 51 51 48 46 42 44 42 41 37 41 39 30 26 23 18 31 35 34 22 29 25 29 42 46 39 33 39 39 34
62 61 63 64 64 65 63 62 61 59 55 54 55 57 66 54 54 51 48 48 44 44 39 38 34 33 34 31 29 26 32 27 24 24 27 35 39 43 28 37 34 36 31
61 63 63 63 67 68 68 65 63 62 60 59 61 59 53 46 57 48 52 52 50 47 42 42 39 35 35 36 35 33 28 28 30 33 33 31 46 44 48 37 46 43 40
55 55 57 61 66 69 70 70 68 66 64 63 60 61 61 59 56 50 56 55 58 52 50 44 43 41 39 37 39 40 39 35 35 44 44 43 42 52 51 42 52 47 48
51 53 55 56 60 68 70 70 70 71 68 67 66 65 58 64 62 50 58 57 53 61 54 50 46 47 45 44 42 44 42 44 44 44 49 55 52 51 49 50 54 56 53
52 55 57 58 60 63 65 69 71 72 74 69 65 65 70 67 56 58 59 70 56 52 47 56 56 54 49 49 48 48 49 49 50 50 45 46 51 53 52 53 53 47 42
49 49 51 57 60 65 66 66 64 68 73 76 72 71 67 67 68 63 67 59 53 52 56 69 51 55 56 53 50 51 50 51 52 53 50 49 48 47 59 53 46 47 50
Wind_Direction
272 275 269 269 274 278 275 265 255 247 256 246 230 225 224 221 222 215 216 226 220 214 206 202 200 193 198 200 201 191 186 180 189 180 179 178 180 179 178 176 177 174 173
268 266 266 270 273 275 278 273 264 253 253 261 237 233 226 223 222 224 220 217 219 216 206 207 201 202 201 200 194 194 192 190 189 186 186 182 185 184 183 179 183 181 178
279 269 269 262 273 279 273 272 268 262 251 253 248 237 236 225 224 223 223 223 219 215 223 213 204 209 205 203 200 196 194 192 194 189 190 188 186 189 186 187 186 188 188
265 267 266 269 265 264 266 266 265 259 256 246 250 246 242 237 226 224 221 221 225 222 224 222 214 214 212 209 205 202 199 198 200 194 192 193 189 189 190 188 190 191 194
265 260 261 263 265 266 265 265 262 259 254 251 250 257 251 245 237 224 222 222 223 222 222 221 219 219 218 215 211 209 203 203 201 200 198 197 195 193 192 194 194 194 194
252 260 257 254 258 264 267 265 260 260 256 249 250 252 259 252 239 228 222 219 219 221 222 223 226 225 222 221 215 212 211 209 204 200 199 202 199 198 197 196 197 198 198
244 252 254 254 251 252 258 266 264 261 256 253 246 244 248 252 243 235 228 224 223 220 224 226 229 230 229 225 220 215 212 212 209 203 199 202 203 201 199 198 197 201 197
258 247 249 253 255 252 252 257 263 261 260 255 249 240 239 241 244 241 237 232 231 227 226 228 231 233 234 232 221 215 211 213 211 207 205 203 200 202 201 201 199 201 200
250 254 247 247 250 251 252 248 253 259 258 257 254 247 235 238 236 237 241 236 238 231 230 233 233 236 237 240 228 215 214 212 207 204 207 207 205 204 203 199 202 202 203
244 246 250 248 245 247 248 248 245 246 254 255 255 248 244 238 235 238 249 235 240 238 232 230 234 238 242 242 227 220 212 206 204 206 208 207 205 211 209 205 205 204 205
247 244 244 245 243 244 245 246 249 246 248 252 251 251 247 244 240 237 242 243 244 238 230 222 225 233 243 234 244 234 218 207 204 204 205 208 207 209 211 211 213 212 210
242 240 237 241 242 242 243 245 247 247 243 247 250 251 251 244 244 242 243 248 241 238 241 227 226 227 229 235 229 222 212 206 202 199 204 213 214 214 211 211 212 215 217
247 246 245 240 242 242 242 241 244 246 242 240 244 248 249 247 246 247 246 244 236 244 205 216 211 213 217 222 215 202 204 203 201 201 204 213 218 212 212 212 214 215 217
253 250 249 246 241 242 243 243 244 246 244 239 240 244 247 247 248 249 245 244 250 228 209 216 211 224 211 214 222 200 208 207 195 202 204 209 214 213 213 216 215 216 214
254 251 249 249 249 243 244 244 244 245 248 244 239 241 247 246 246 248 250 240 234 220 222 226 212 210 215 216 218 201 195 210 190 197 202 209 216 212 207 214 213 214 215
252 252 249 248 248 246 244 242 243 244 245 247 242 239 244 249 241 244 246 250 243 248 225 219 205 211 220 218 194 191 194 202 185 187 194 200 203 212 215 216 217 214 213
250 251 250 247 244 245 245 241 242 243 246 246 246 241 242 238 237 240 248 249 245 249 245 204 201 182 187 192 193 196 201 203 192 195 196 190 200 210 209 211 210 213 211
241 244 246 247 243 241 241 241 240 241 243 245 246 244 242 241 241 236 244 246 245 246 235 225 268 207 251 258 211 201 214 220 209 210 227 217 196 195 189 206 212 214 213
241 236 239 240 242 240 240 240 237 239 241 242 244 243 244 244 241 238 239 246 245 246 245 245 256 264 273 261 263 227 227 229 225 220 218 234 221 204 206 212 212 218 216
246 239 234 236 239 238 237 239 240 237 237 241 242 241 241 242 241 239 235 243 246 245 242 244 245 247 243 244 244 240 260 263 246 234 233 227 213 206 205 211 242 230 223
244 241 238 235 234 237 235 234 237 236 235 236 242 241 246 234 241 241 237 238 242 247 246 245 239 241 249 250 244 241 243 240 236 231 232 233 224 224 234 220 239 237 230
243 241 238 236 234 234 233 232 232 235 233 232 231 241 233 247 240 233 242 243 240 244 243 243 244 239 237 240 234 236 238 238 226 224 223 225 227 235 229 213 228 227 242
239 238 239 238 234 232 233 232 230 229 232 231 230 231 238 228 223 238 243 244 245 237 241 237 239 239 237 236 230 227 226 232 226 228 233 232 224 220 221 237 235 241 242
233 234 236 236 237 234 232 232 231 230 228 229 230 231 229 231 239 240 235 248 228 244 237 237 237 234 234 231 232 231 228 227 225 229 229 237 226 232 234 239 240 244 250
240 235 234 235 233 234 236 235 233 232 229 229 225 228 227 230 233 235 229 233 235 238 229 247 242 236 234 235 234 234 236 230 230 233 237 240 234 239 237 243 244 243 246
242 235 231 232 231 232 231 232 234 235 234 230 228 230 229 232 227 226 231 233 237 227 244 241 227 241 239 236 238 238 241 238 238 236 235 237 241 237 230 241 242 245 248